Regional Weather Roundup
Issued by NWS

Home | Current Version | Previous Version | Text Only | Print | Product List | Glossary Off
Versions: 1 2 3 4 5 6 7 8 9 10 11 12 13 14 15 16 17 18 19 20 21 22 23 24 25 26 27 28 29 30 31 32 33 34 35 36 37 38 39 40 41 42 43 44 45 46 47 48 49 50

000
ASUS45 KPSR 262210
RWRAZ

ARIZONA HOURLY REGIONAL WEATHER ROUNDUP
NATIONAL WEATHER SERVICE PHOENIX AZ
300 PM MST FRI MAY 26 2017

NOTE: FAIR INDICATES FEW OR NO CLOUDS BELOW 12,000 FEET WITH NO
SIGNIFICANT WEATHER AND/OR OBSTRUCTIONS TO VISIBILITY.

AZZ001>003-036-262300-
NORTHWEST ARIZONA

CITY           SKY/WX    TMP DP  RH WIND       PRES   REMARKS
BULLHEAD CITY  SUNNY     93  27   9 S18G24    29.72F
KINGMAN        SUNNY     83  22  10 S20G30    29.88S
$$

AZZ004>008-015-016-018-262300-
NORTH CENTRAL ARIZONA

CITY           SKY/WX    TMP DP  RH WIND       PRES   REMARKS
GRAND CANYON   SUNNY     73  21  14 SW17G33   30.01S
WILLIAMS       SUNNY     72  18  13 SW20G26   30.05S
PRESCOTT       SUNNY     75  19  12 S17G25    29.99F
FLAGSTAFF      SUNNY     66  11  11 SW20G33   30.07S
PAYSON         SUNNY     77  12   8 SW12G18   30.04S
PAGE           SUNNY     86  18   8 W9G22     29.79S
$$

AZZ009>014-017-262300-
NORTHEAST ARIZONA

CITY           SKY/WX    TMP DP  RH WIND       PRES   REMARKS
WINSLOW        SUNNY     84   6   5 SW25G37   29.93F
SAINT JOHNS    SUNNY     80  12   7 SW23G38   29.98F
WINDOW ROCK    SUNNY     76  10   8 SW24G39   30.02F
SHOW LOW         N/A     72  10   9 SW26G33   30.07
$$

AZZ540-542>544-546-548-262300-
GREATER PHOENIX AREA

CITY           SKY/WX    TMP DP  RH WIND       PRES   REMARKS
PHOENIX        SUNNY     94  22   7 SE9       29.78F
BUCKEYE        SUNNY     91  25   9 S15G24    29.80F
GLENDALE       SUNNY     93  27   9 S17G23    29.81F
LUKE AFB       SUNNY     92  24   8 SW12      29.79F
DEER VALLEY    SUNNY     90  25   9 SW15G21   29.81F
SCOTTSDALE     SUNNY     91  20   7 W12G20    29.83F
MESA-FALCON    SUNNY     91  23   8 SW5       29.82F
CHANDLER       SUNNY     93  19   7 SW12      29.80F
$$

AZZ539-553-262300-
SOUTHWEST MARICOPA COUNTY AND PINAL COUNTY

CITY           SKY/WX    TMP DP  RH WIND       PRES   REMARKS
CASA GRANDE    SUNNY     93  21   7 SW15G21   29.82F
GILA BEND      FAIR      93  28   9 SW16      29.78F
$$

AZZ503-504-507>509-262300-
SOUTHEAST ARIZONA

CITY           SKY/WX    TMP DP  RH WIND       PRES   REMARKS
TUCSON         SUNNY     95  21   7 W18G33    29.89F
DAVIS-MONTHAN  SUNNY     93  18   6 SW16G26   29.88F
RYAN FIELD     SUNNY     93  19   7 SW22G28   29.87F
NOGALES        SUNNY     91  15   6 SW28G36   29.98F
SIERRA VISTA   SUNNY     86  19   8 SW22G38   30.04S
DOUGLAS        SUNNY     90  25   9 SW23G33   29.98F
SAFFORD        SUNNY     94  13   5 W15G29    29.84F
$$

AZZ532-262300-
SOUTHWEST ARIZONA

CITY           SKY/WX    TMP DP  RH WIND       PRES   REMARKS
YUMA           SUNNY     90  41  18 VRB5      29.79F
$$

CAZ041-043-047-048-061-525>527-560>570-262300-
SOUTHERN CALIFORNIA

CITY           SKY/WX    TMP DP  RH WIND       PRES   REMARKS
DOWNTOWN L.A.  CLOUDY    69  53  56 VRB3      29.98F
L.A. AIRPORT   MOSUNNY   68  51  54 W15       29.99F
SAN DIEGO      MOSUNNY   70  49  47 W10       30.02S
BURBANK        CLOUDY    66  48  52 S8        29.98F
ONTARIO        MOSUNNY   73  48  41 W14       29.97S
RIVERSIDE      MOSUNNY   75  49  39 VRB6G21   29.96F
PALM SPRINGS   SUNNY     88  43  20 VRB7      29.80F
EL CENTRO NAS  SUNNY     92  34  13 W10       29.78F
IMPERIAL       LGT RAIN  90  40  17 S8        29.77F
BLYTHE         SUNNY     91  30  11 S16G22    29.77F
NEEDLES        SUNNY     95  25   8 SW17G32   29.75F
$$

NVZ020-UTZ003-262300-
SOUTHERN NEVADA-UTAH

CITY           SKY/WX    TMP DP  RH WIND       PRES   REMARKS
LAS VEGAS      MOSUNNY   90  23   9 S13G21    29.72F
SALT LAKE CITY MOSUNNY   68  33  27 N14G20    29.91R
$$

NMZ009-TXZ055-262300-
NEW MEXICO-WEST TEXAS

CITY           SKY/WX    TMP DP  RH WIND       PRES   REMARKS
ALBUQUERQUE    PTSUNNY   82   9   6 VRB3      29.91F
EL PASO        MOSUNNY   94  21   7 SW30G40   29.91F
$$


........................KEY........................
SKY/WX - SKY CONDITION/WEATHER
TMP    - TEMPERATURE IN FAHRENHEIT
DP     - DEW POINT IN FAHRENHEIT
RH     - RELATIVE HUMIDITY IN PERCENT
WIND   - DIRECTION AND SPEED IN MILES PER HOUR (MPH)
VRB    - VARIABLE WIND DIRECTION
PRES   - MEAN SEA LEVEL PRESSURE IN INCHES OF MERCURY
         F - FALLING PRESSURE   R - RISING PRESSURE
         S - STEADY PRESSURE
VSB    - VISIBILITY IN MILES
HX     - HEAT INDEX IN FAHRENHEIT
WCI    - WIND CHILL INDEX IN FAHRENHEIT
TC     - TEMPERATURE IN CELSIUS WHICH IS ALSO KNOWN AS
         TEMPERATURE IN CENTIGRADE
AFB    - AIR FORCE BASE
         LUKE AFB IS LUKE AIR FORCE BASE
         DAVIS-MONTHAN IS DAVIS-MONTHAN AIR FORCE BASE
NAS    - NAVAL AIR STATION
         EL CENTRO NAS IS EL CENTRO NAVAL AIR STATION
N/A    - NOT AVAILABLE




USA.gov is the U.S. government's official web portal to all federal, state and local government web resources and services.